User: anonymous   Login
Location: Campillo
(40.8621°N, 4.2488°W)
Time: 23:42:28
(UTC+00:00)
Language:

Resurs 1-3 - Orbit

View from above orbital plane
View from above orbital plane
View from above satellite
View from above satellite

Ground track
Ground track

The orbit data is extracted from the following two-line orbital elements,

1 23342U 94074A   21216.88263867  .00000067  00000-0  15776-4 0  9991
2 23342  97.8738 264.7620 0002222 104.1281 256.0178 14.79445556440715
Epoch (UTC): 04 August 2021 21:10:59
Eccentricity: 0.0002222
inclination: 97.8738°
perigee height: 629 km
apogee height: 632 km
right ascension of ascending node: 264.7620°
argument of perigee: 104.1281°
revolutions per day: 14.79445556
mean anomaly at epoch: 256.0178°
orbit number at epoch: 44071

The dashed part of the orbit path shows where the satellite is in the earth's shadow,  

DLR